Location: Newark
(44.3248°N, 23.7839°E)
Time: 22:32:19
(UTC+00:00)

PCSat - Pass Details

Date: 14 April 2024
Orbit: 783 x 792 km, 67.1° (Epoch: 20 May)

Event Time Altitude Azimuth Distance (km) Brightness Sun altitude
Rises 19:53:55 0° 225° (SW) 3,266 12.7 -26.0°
Reaches altitude 10° 19:56:22 10° 230° (SW) 2,343 12.0 -26.3°
Maximum altitude 20:01:37 52° 307° (NW) 974 10.3 -26.9°
Drops below altitude 10° 20:06:54 10° 23° (NNE) 2,363 12.3 -27.5°
Sets 20:09:24 0° 29° (NNE) 3,297 13.1 -27.8°
